[[{"header":{"parameterUnit":"m.s-1","parameterCategory":1,"la1":30.2991,"la2":30.254,"lo1":-89.0895,"lo2":-89.0444,"dy":0.0017,"dx":0.0017,"nx":28,"ny":28,"refTime":"2024-04-14T09:00:00:Z","depth":0,"parameterNumber":2,"parameterNumberName":"U-component_of_WINDS"},"data":[0,0,0,0,0,0,0,0,0,0,0,0,0,0,0,0,0,0,0,0,0,0,0,0,0,0,0,0,0,0,0,0,0,0,0,0,0,0,0,0,0,0,0,0,0,0,0,0,0,0,0,0,0,0,0,0,0,0,1.0897,1.0898,0,1.0991,1.0992,1.0993,1.0985,1.0983,1.0982,1.0981,1.1078,1.1082,1.1086,0,0,0,0,0,0,0,0,0,0,0,0,0,1.071,1.0713,1.0897,1.0898,1.0899,1.0991,1.0992,1.0994,1.0985,1.0983,1.0982,1.098,1.1077,1.1082,1.1087,0,0,0,0,0,0,0,0,0,0,0,0,0,1.0796,1.0714,1.0897,1.0906,1.0908,1.0991,1.0992,1.0994,1.0986,1.0983,1.0981,1.0979,1.1076,1.1081,1.1087,1.1167,0,0,1.1105,1.1108,0,0,0,0,0,0,0,0,1.0791,1.0803,1.0904,1.0906,1.0908,1.0974,1.0962,1.1052,1.0986,1.0956,1.0981,1.0978,1.1046,1.1054,1.1076,1.1172,1.1176,1.1106,1.1109,1.1112,1.1114,0,0,0,0,0,0,0,1.0785,1.0799,1.0934,1.0905,1.0908,1.0906,1.0915,1.0979,1.1012,1.0959,1.0958,1.0969,1.1046,1.1071,1.1079,1.1177,1.1106,1.1111,1.1115,1.1117,1.134,1.1342,0,0,0,0,0,0,1.0777,1.0794,1.0931,1.0937,1.0843,1.0911,1.0922,1.0955,1.1011,1.1018,1.0971,1.0969,1.1062,1.1072,1.1082,1.1177,1.1112,1.1118,1.1121,1.1338,1.1341,1.1343,0,0,0,0,0,0,1.0773,1.0789,1.0928,1.0866,1.0883,1.0916,1.0954,1.0958,1.0982,1.1021,1.1026,1.099,1.106,1.1074,1.1145,1.118,1.112,1.1126,1.1335,1.1339,1.1342,1.1369,0,0,0,0,0,0,1.0768,1.0788,1.0819,1.0866,1.0886,1.099,1.0956,1.0961,1.0992,1.099,1.104,1.1046,1.106,1.1136,1.1151,1.1187,1.113,1.1332,1.1337,1.1341,1.1365,1.1373,1.138,0,0,0,0,0,1.0761,1.0824,1.0821,1.0837,1.0926,1.0992,1.1003,1.1017,1.0995,1.1026,1.105,1.1044,1.1174,1.1144,1.116,1.1199,1.133,1.1335,1.1341,1.1362,1.1372,1.138,0,0,0,0,0,0,1.0781,1.083,1.0827,1.0907,1.0945,1.099,1.103,1.1027,1.1073,1.1069,1.1084,1.1096,1.1167,1.1191,1.1156,1.1278,1.1249,1.1258,1.126,1.1269,1.1277,1.1269,1.1135,0,0,0,0,0,1.0795,1.0844,1.0885,1.0951,1.097,1.0997,1.1026,1.1033,1.1073,1.109,1.1119,1.1158,1.1208,1.124,1.1288,1.1369,1.1378,1.1403,1.1411,1.1417,1.1424,1.1466,1.1476,1.1361,1.1361,1.1361,0,0,1.0824,1.0857,1.0887,1.0956,1.0986,1.1036,1.101,1.1065,1.1102,1.1098,1.1167,1.119,1.1234,1.131,1.1345,1.1332,1.1458,1.1423,1.1428,1.1432,1.1472,1.1483,1.1493,1.1364,1.1364,1.1363,0,0,1.0902,1.0932,1.099,1.102,1.1065,1.1082,1.1096,1.1141,1.1155,1.1225,1.1221,1.1266,1.1351,1.1382,1.141,1.1496,1.1492,1.1512,1.155,1.159,1.16,1.1608,1.1636,1.1647,1.1519,1.1519,1.1519,0,1.0932,1.1007,1.102,1.1074,1.1104,1.1101,1.1159,1.1188,1.1247,1.1267,1.1251,1.1356,1.1387,1.1468,1.1489,1.1512,1.1527,1.1506,1.1597,1.1605,1.1613,1.1641,1.1652,1.1521,1.1521,1.152,1.152,0,1.1041,1.1093,1.1134,1.1189,1.1224,1.128,1.13,1.1334,1.1337,1.1355,1.1424,1.146,1.1514,1.1534,1.1539,1.1616,1.1606,1.1594,1.1565,1.1626,1.1652,1.1663,1.1524,1.1523,1.1522,1.1522,0,0,1.1135,1.1195,1.121,1.1233,1.1282,1.1323,1.1378,1.1429,1.1456,1.1497,1.1542,1.1613,1.1601,1.1632,1.164,1.1676,1.174,1.1659,1.166,1.1671,1.1824,1.1831,1.1844,1.1737,1.1739,1.1741,1.1819,0,1.1216,1.1313,1.1325,1.1411,1.1458,1.1455,1.1502,1.1537,1.1555,1.1597,1.1617,1.1667,1.1648,1.1666,1.1702,1.1724,1.177,1.1719,1.1778,1.178,1.1766,1.1858,1.1867,1.1939,1.183,1.1832,1.1833,0,1.1324,1.1365,1.1455,1.1495,1.1515,1.1558,1.1604,1.1646,1.1684,1.1695,1.1727,1.1731,1.1786,1.1756,1.1832,1.1797,1.1822,1.1836,1.1839,1.1844,1.1809,1.1863,1.1963,1.1973,1.185,1.1848,1.1847,0,1.138,1.1459,1.1522,1.1543,1.1592,1.1621,1.1643,1.168,1.1709,1.175,1.1769,1.1816,1.1842,1.1878,1.1893,1.187,1.1968,1.1939,1.1977,1.1976,1.1997,1.1995,1.21,1.2016,1.2016,1.2015,1.2015,0,1.1469,1.1523,1.1548,1.1587,1.1647,1.166,1.172,1.174,1.1772,1.1814,1.1816,1.1855,1.1874,1.1916,1.1928,1.1988,1.2,1.2009,1.2012,1.2008,1.2007,1.2024,1.2019,1.2018,1.2018,1.2017,1.2017,0,1.1542,1.1561,1.1629,1.1669,1.168,1.1723,1.1756,1.1794,1.181,1.1864,1.1877,1.1904,1.1953,1.1972,1.2033,1.2041,1.2109,1.2108,1.2096,1.2096,1.2132,1.2127,1.225,1.2266,1.2173,1.2174,1.2174,0,1.1597,1.1638,1.1682,1.1709,1.1731,1.1777,1.1806,1.182,1.185,1.1896,1.1927,1.1976,1.2016,1.2094,1.2119,1.2165,1.2164,1.2204,1.2171,1.2166,1.2162,1.2159,1.2162,1.221,1.2211,1.2211,1.2212,0,1.169,1.1697,1.1739,1.1783,1.1818,1.1854,1.1889,1.1912,1.1931,1.1965,1.2014,1.2045,1.2106,1.2153,1.22,1.2222,1.222,1.2222,1.2233,1.2229,1.2219,1.2223,1.211,1.2219,1.2218,1.2218,1.2217,1.2217,1.1755,1.179,1.1825,1.1871,1.1899,1.1931,1.1967,1.1987,1.2029,1.2078,1.2085,1.2137,1.2173,1.2235,1.2259,1.23,1.2289,1.2306,1.2309,1.2313,1.2314,1.2214,1.2309,1.2309,1.2308,1.2308,1.2308,0,1.1846,1.1868,1.191,1.1958,1.1994,1.1988,1.2026,1.2056,1.2102,1.2135,1.2174,1.2229,1.2275,1.2303,1.2349,1.2376,1.2376,1.2387,1.2385,1.2389,1.2322,1.2307,1.2387,1.2387,1.2386,1.2386,1.2386,1.2386,1.1898,1.1957,1.1968,1.204,1.2062,1.2113,1.2134,1.2164,1.219,1.2252,1.2289,1.2307,1.2337,1.2385,1.2426,1.2433,1.2449,1.2461,1.2466,1.2403,1.2395,1.2387,1.2373,1.2465,1.2465,1.253,1.2531,1.2531]},{"header":{"parameterUnit":"m.s-1","parameterCategory":1,"la1":30.2991,"la2":30.254,"lo1":-89.0895,"lo2":-89.0444,"dy":0.0017,"dx":0.0017,"nx":28,"ny":28,"refTime":"2024-04-14T09:00:00:Z","depth":0,"parameterNumber":3,"parameterNumberName":"V-component_of_WINDS"},"data":[0,0,0,0,0,0,0,0,0,0,0,0,0,0,0,0,0,0,0,0,0,0,0,0,0,0,0,0,0,0,0,0,0,0,0,0,0,0,0,0,0,0,0,0,0,0,0,0,0,0,0,0,0,0,0,0,0,0,1.0157,1.0158,0,1.0253,1.0254,1.0256,1.0238,1.0236,1.0235,1.0233,1.0333,1.0337,1.0342,0,0,0,0,0,0,0,0,0,0,0,0,0,0.9959,0.9963,1.0157,1.0158,1.016,1.0253,1.0255,1.0256,1.0238,1.0236,1.0234,1.0232,1.0332,1.0337,1.0342,0,0,0,0,0,0,0,0,0,0,0,0,0,1.0049,0.9964,1.0157,1.0162,1.0164,1.0253,1.0255,1.0256,1.0239,1.0236,1.0234,1.0231,1.033,1.0336,1.0343,1.0434,0,0,1.0362,1.0365,0,0,0,0,0,0,0,0,1.0044,1.0057,1.016,1.0162,1.0164,1.0231,1.0221,1.0316,1.024,1.021,1.0233,1.023,1.0301,1.031,1.0334,1.0438,1.0443,1.0363,1.0367,1.0369,1.0371,0,0,0,0,0,0,0,1.0038,1.0052,1.0195,1.0162,1.0164,1.016,1.017,1.0239,1.0269,1.0213,1.0212,1.0223,1.0302,1.0328,1.0336,1.0444,1.0363,1.0368,1.0372,1.0375,1.0626,1.0629,0,0,0,0,0,0,1.003,1.0047,1.0192,1.0198,1.0096,1.0166,1.0177,1.0212,1.0268,1.0274,1.0225,1.0222,1.0318,1.0329,1.0339,1.0449,1.0369,1.0375,1.0379,1.0624,1.0627,1.063,0,0,0,0,0,0,1.0026,1.0043,1.0188,1.0123,1.0141,1.0172,1.0212,1.0215,1.0241,1.0278,1.0283,1.0246,1.0316,1.033,1.041,1.0452,1.0378,1.0384,1.062,1.0625,1.0629,1.0669,0,0,0,0,0,0,1.002,1.0042,1.0077,1.0123,1.0144,1.0257,1.0214,1.0219,1.0252,1.0249,1.0299,1.0305,1.0315,1.04,1.0416,1.046,1.0389,1.0617,1.0622,1.0627,1.0664,1.0674,1.0682,0,0,0,0,0,1.0013,1.0085,1.0078,1.0096,1.0188,1.026,1.0272,1.0282,1.0255,1.0291,1.0314,1.0303,1.0445,1.0409,1.0426,1.0472,1.0614,1.0621,1.0627,1.0659,1.0672,1.0682,0,0,0,0,0,0,1.0043,1.0091,1.0085,1.0173,1.0212,1.0257,1.0301,1.0295,1.0343,1.0338,1.035,1.0361,1.0441,1.0465,1.0424,1.0562,1.0526,1.0536,1.0544,1.0556,1.0565,1.0558,1.0394,0,0,0,0,0,1.006,1.0113,1.0152,1.0227,1.0247,1.0271,1.0302,1.0307,1.0348,1.0365,1.0394,1.0435,1.0488,1.0523,1.0575,1.0666,1.0677,1.0707,1.0716,1.0723,1.0732,1.0781,1.0795,1.0651,1.0651,1.0651,0,0,1.0095,1.0128,1.0161,1.0234,1.0264,1.032,1.0285,1.0345,1.0386,1.0374,1.045,1.0473,1.0519,1.0605,1.0644,1.0627,1.0774,1.0732,1.0737,1.0742,1.0789,1.0803,1.0815,1.0655,1.0655,1.0654,0,0,1.0188,1.0218,1.0283,1.0314,1.0361,1.0376,1.0392,1.0437,1.0451,1.0528,1.0519,1.0568,1.0661,1.0694,1.0722,1.0826,1.0817,1.0842,1.0891,1.0939,1.095,1.096,1.0997,1.101,1.0851,1.0851,1.0851,0,1.0226,1.0309,1.0318,1.0378,1.041,1.04,1.0466,1.0496,1.0557,1.058,1.0559,1.0674,1.0704,1.0797,1.0822,1.0846,1.0863,1.0837,1.0948,1.0958,1.0968,1.1002,1.1016,1.0854,1.0853,1.0853,1.0853,0,1.0354,1.0411,1.0458,1.0516,1.0553,1.0616,1.0634,1.067,1.0671,1.0689,1.0766,1.0802,1.086,1.0882,1.0884,1.0975,1.0963,1.0945,1.0908,1.0984,1.1017,1.103,1.0857,1.0856,1.0856,1.0855,0,0,1.0469,1.053,1.0547,1.0573,1.0623,1.0668,1.073,1.0786,1.0816,1.0859,1.0911,1.0988,1.0971,1.1004,1.101,1.1051,1.113,1.1028,1.103,1.1046,1.1231,1.1245,1.126,1.1124,1.1127,1.1129,1.1227,0,1.0567,1.0676,1.0684,1.0783,1.0835,1.0826,1.088,1.0916,1.0934,1.0981,1.1,1.1055,1.1029,1.1048,1.1089,1.1112,1.1167,1.1105,1.1173,1.1175,1.1162,1.1277,1.1292,1.1383,1.124,1.1243,1.1244,0,1.0695,1.074,1.0843,1.0885,1.0907,1.0955,1.1007,1.1052,1.1093,1.1102,1.1138,1.1137,1.12,1.1161,1.1248,1.1205,1.1233,1.1248,1.1252,1.1259,1.1215,1.1287,1.1413,1.1426,1.1265,1.1263,1.1261,0,1.0769,1.0855,1.0928,1.095,1.1,1.1034,1.1057,1.1095,1.1128,1.1172,1.1193,1.1245,1.1274,1.1313,1.1326,1.1296,1.1413,1.1375,1.1423,1.1422,1.1448,1.1447,1.158,1.1466,1.1466,1.1466,1.1466,0,1.0877,1.094,1.0961,1.1006,1.1077,1.1086,1.1155,1.1176,1.121,1.1258,1.1253,1.1299,1.1313,1.1361,1.1371,1.1442,1.1455,1.1464,1.1466,1.1465,1.1464,1.1484,1.1478,1.1469,1.1469,1.1468,1.1467,0,1.0971,1.0988,1.1066,1.1107,1.1118,1.1169,1.1203,1.1246,1.1262,1.1323,1.1338,1.1363,1.1419,1.1436,1.1504,1.151,1.1593,1.1589,1.1579,1.1579,1.1626,1.1621,1.1777,1.1798,1.1671,1.1672,1.1673,0,1.1039,1.1088,1.1133,1.1164,1.1188,1.1239,1.1272,1.1282,1.1317,1.1366,1.1403,1.1458,1.1503,1.1592,1.1617,1.1668,1.1666,1.1717,1.1674,1.167,1.1666,1.1663,1.1668,1.1725,1.1726,1.1727,1.1728,0,1.1158,1.1163,1.121,1.126,1.1299,1.1339,1.1378,1.1404,1.142,1.1458,1.1515,1.155,1.1618,1.1672,1.1724,1.1747,1.1741,1.1741,1.1755,1.1755,1.1747,1.1751,1.1601,1.1738,1.1737,1.1736,1.1736,1.1736,1.1241,1.1283,1.1321,1.1374,1.1403,1.1439,1.1481,1.1501,1.1549,1.1604,1.1608,1.1669,1.1707,1.1776,1.1801,1.1849,1.1835,1.1855,1.186,1.1865,1.1868,1.1738,1.1859,1.1859,1.1858,1.1858,1.1858,0,1.1359,1.1383,1.1431,1.1484,1.1525,1.1514,1.1555,1.1591,1.1644,1.168,1.1724,1.1789,1.1841,1.1869,1.1921,1.1954,1.1952,1.1967,1.1965,1.197,1.1879,1.1862,1.1968,1.1968,1.1968,1.1968,1.1968,1.1968,1.1426,1.1496,1.1506,1.1591,1.1614,1.1673,1.1698,1.173,1.1759,1.1831,1.1874,1.1892,1.1924,1.1978,1.2026,1.2033,1.2052,1.2069,1.2074,1.1988,1.1977,1.1966,1.195,1.2073,1.2073,1.2161,1.2162,1.2163]}]]